Bodensee (Kressbronn): 6,7°C  -  Teich der Wetterzentrale Bad Schussenried: 5,6°C |  Schneehöhe Kreuzthal-Steinberg (930 m ü. NN): 8 cm   
01.04.2020Höhe
ü. NN
ZeitTemperatur (°C)Nieder-
schlag
Luft-
feuchte
Luft-
druck
Wind
StationaktuellMinimumMaximumaktuellMaximum
Aldingen654 m06:31-4,9-4,9 (07:35)-0,3 (16:02)0,0 l/m²80%1023,40,0 km/h (0 Bft) W29,6 km/h (5 Bft) W (14:48)
Allmendingen541 m06:30-6,3-6,3 (07:35)-2,1 (15:10)0,0 l/m²88%1023,13,2 km/h (1 Bft) NO35,4 km/h (5 Bft) O (15:35)
Altshausen574 m06:30-3,9-3,9 (05:14)-1,1 (00:16)0,0 l/m²67%1020,68,0 km/h (2 Bft) N-NW11,3 km/h (2 Bft) N (06:10)
Amstetten-Reutti663 m06:30-4,6-4,7 (06:15)-1,5 (16:55)0,0 l/m²86%1022,94,8 km/h (1 Bft) W48,3 km/h (6 Bft) W (15:55)
Amtzell-Grenis677 m06:30-3,4-4,1 (06:05)-1,4 (00:00)0,0 l/m²62%1022,76,4 km/h (2 Bft) O-NO6,4 km/h (2 Bft) W-SW (00:00)
Aulendorf570 m06:30-3,0-3,0 (06:19)-0,5 (00:00)0,0 l/m²72%1021,73,2 km/h (1 Bft) N-NO14,5 km/h (3 Bft) O-NO (05:13)
Bad Krozingen233 m06:30-2,2-2,2 (06:30)3,7 (16:05)0,0 l/m²78%1023,35,2 km/h (1 Bft) SW38,1 km/h (5 Bft) N (17:05)
Bad Saulgau595 m06:30-5,1-5,1 (07:00)-1,9 (15:00)0,0 l/m²87%1021,50,0 km/h (0 Bft) S-SO25,7 km/h (4 Bft) S (11:35)
Bad Saulgau, Mannsgrab588 m06:28-4,8-6,1 (05:34)-1,7 (00:17)0,0 l/m²86%1024,10,0 km/h (0 Bft) N0,0 km/h (0 Bft) N (00:00)
Bad Saulgau-Lampertsweiler627 m06:30-4,5-4,8 (06:15)0,2 (00:00)0,0 l/m²82%1024,66,4 km/h (2 Bft) N-NW22,5 km/h (4 Bft) N-NW (01:15)
Bad Schussenried572 m06:30-4,1-4,1 (06:25)-1,1 (00:00)0,0 l/m²87%1021,10,0 km/h (0 Bft) NO9,7 km/h (2 Bft) NO (03:15)
Bergatreute615 m01:45-0,7-0,7 (00:45)0,0 (00:00)0,0 l/m²77%1023,512,9 km/h (3 Bft) NO16,1 km/h (3 Bft) O-NO (01:40)
Biberach (Riss), Boehringer533 m06:30-4,3-4,4 (06:30)-1,1 (00:30)0,0 l/m²89%1021,94,3 km/h (1 Bft) N11,9 km/h (3 Bft) N (03:00)
Biberach (Riss), Realschule553 m06:30-3,9-4,0 (06:30)-0,3 (00:00)0,0 l/m²87%1023,68,0 km/h (2 Bft) N-NW12,9 km/h (3 Bft) N (06:05)
Burgrieden523 m06:30-4,1-4,1 (06:30)-0,4 (00:00)0,0 l/m²82%1022,80,0 km/h (0 Bft) NO4,8 km/h (1 Bft) O-NO (02:50)
Burgrieden-Hochstetten510 m06:25-4,6-4,6 (07:00)-0,9 (15:40)0,0 l/m²89%1023,23,2 km/h (1 Bft) N-NO25,7 km/h (4 Bft) NO (12:55)
Ebersbach579 m06:30-3,8-3,8 (05:55)-0,1 (00:00)0,0 l/m²86%1023,011,3 km/h (2 Bft) N-NO16,1 km/h (3 Bft) NO (01:25)
Ebersbach-Boos605 m06:30-4,1-4,2 (05:55)-0,1 (00:00)0,0 l/m²88%1022,816,1 km/h (3 Bft) O22,5 km/h (4 Bft) O (01:00)
Ebersbach-Menzenweiler661 m06:30-3,8-3,9 (06:20)-0,6 (00:00)0,0 l/m²88%1022,722,5 km/h (4 Bft) NO24,1 km/h (4 Bft) O-NO (01:05)
Ehingen535 m01:10-2,5-2,5 (01:10)-1,3 (00:05)0,0 l/m²70%1025,40,0 km/h (0 Bft) N-NO5,0 km/h (1 Bft) N-NO (00:15)
Erlenmoos645 m06:30-3,4-3,4 (06:25)-0,9 (00:00)0,0 l/m²86%1022,64,8 km/h (1 Bft) NO12,9 km/h (3 Bft) O-NO (01:35)
Ertingen569 m06:30-3,5-3,5 (06:30)-0,6 (00:00)0,0 l/m²84%1022,73,2 km/h (1 Bft) N16,1 km/h (3 Bft) N-NO (04:10)
Friedrichshafen405 m06:30-1,7-1,7 (07:00)0,9 (13:30)0,0 l/m²78%1022,59,7 km/h (2 Bft) N27,4 km/h (4 Bft) NO (15:10)
Günzburg443 m06:30-4,7-4,8 (06:05)-1,1 (00:00)0,0 l/m²87%1020,80,0 km/h (0 Bft) NO0,0 km/h (0 Bft) NO (00:00)
Hochdorf-Appendorf537 m06:30-4,6-5,8 (06:05)-1,7 (00:15)0,0 l/m²66%1022,58,0 km/h (2 Bft) N14,5 km/h (3 Bft) N-NW (03:20)
Höchsten802 m06:30-4,1-4,1 (06:30)-1,4 (00:00)0,0 l/m²82%1020,324,1 km/h (4 Bft) N25,7 km/h (4 Bft) NO (02:45)
Horgenzell618 m06:30-1,9-1,9 (03:45)-0,6 (00:05)0,0 l/m²76%1020,14,8 km/h (1 Bft) N-NO19,3 km/h (3 Bft) N-NO (00:50)
Hoßkirch632 m06:30-6,5-6,6 (06:20)-1,0 (00:15)0,0 l/m²88%1021,51,6 km/h (1 Bft) O14,5 km/h (3 Bft) O-NO (00:20)
Isny, Am Dreifingerbach695 m06:30-6,1-6,2 (06:25)0,1 (01:00)0,0 l/m²85%1021,30,0 km/h (0 Bft) W14,5 km/h (3 Bft) O-NO (01:05)
Isny, Weidachweg706 m06:30-4,1-4,3 (06:20)0,3 (00:25)0,0 l/m²77%1023,74,8 km/h (1 Bft) W12,9 km/h (3 Bft) W (00:10)
Kappel-Grafenhausen163 m06:25-1,6-1,6 (07:00)3,3 (14:55)0,0 l/m²78%1021,24,8 km/h (1 Bft) N30,6 km/h (5 Bft) N-NO (16:55)
Kißlegg-Staibshof709 m06:30-3,4-3,4 (06:30)-0,9 (00:00)0,0 l/m²82%1022,36,4 km/h (2 Bft) N-NO14,5 km/h (3 Bft) O (01:50)
Kressbronn398 m06:30-2,2-2,2 (06:22)1,4 (00:00)0,0 l/m²76%1021,10,0 km/h (0 Bft) NO22,5 km/h (4 Bft) NO (00:54)
Kreuzthal-Steinberg-Alpe930 m06:30-4,5-4,8 (04:00)-2,5 (00:00)0,0 l/m²88%1022,02,2 km/h (1 Bft) W22,0 km/h (4 Bft) W-NW (00:10)
Kreuzthal-Steinberggipfel1040 m06:20-3,6-4,0 (02:20)-3,1 (00:10)-74%1022,013,3 km/h (3 Bft) O37,1 km/h (5 Bft) O-SO (00:10)
Kristberg im Montafon (AT)1425 m06:30-6,4-6,6 (04:51)-5,3 (00:40)0,0 l/m²59%1026,20,0 km/h (0 Bft) N-NO10,1 km/h (2 Bft) NO (01:47)
Laupheim500 m06:30-3,9-3,9 (06:25)0,0 (00:00)0,0 l/m²82%1022,20,0 km/h (0 Bft) NO9,7 km/h (2 Bft) O-SO (00:20)
Leutkirch-Heggelbach670 m06:30-4,7-4,7 (06:20)-2,6 (00:30)0,0 l/m²87%1021,61,6 km/h (1 Bft) N-NO8,0 km/h (2 Bft) N-NO (03:30)
Lindau-Insel420 m06:30-1,3-1,3 (07:25)1,8 (14:55)0,0 l/m²73%1021,60,0 km/h (0 Bft) O-NO29,0 km/h (5 Bft) NO (17:05)
Lindau-Stadt412 m06:30-2,2-2,2 (07:25)1,2 (14:55)0,0 l/m²76%1021,81,6 km/h (1 Bft) NO33,8 km/h (5 Bft) N-NO (15:40)
Maierhöfen im Allgäu733 m06:30-3,8-3,8 (06:30)-1,2 (01:35)0,0 l/m²76%1021,84,8 km/h (1 Bft) NW25,7 km/h (4 Bft) O-SO (02:05)
Maselheim543 m06:30-4,8-5,0 (07:25)-2,3 (13:20)0,0 l/m²87%1023,14,8 km/h (1 Bft) N-NW24,1 km/h (4 Bft) O-NO (15:20)
Maselheim-Sulmingen548 m06:30-5,1-5,1 (07:05)-2,2 (15:15)0,0 l/m²90%1024,41,6 km/h (1 Bft) NW20,9 km/h (4 Bft) N-NO (12:15)
Mietingen-Baltringen528 m06:30-4,9-4,9 (06:30)-1,3 (00:45)0,0 l/m²86%1024,70,0 km/h (0 Bft) O-NO4,8 km/h (1 Bft) N-NO (01:20)
Mindelheim-Apfeltrach620 m06:31-5,7-5,8 (06:29)-2,7 (00:00)0,0 l/m²87%1024,00,0 km/h (0 Bft) NO0,0 km/h (0 Bft) O-NO (00:00)
Mittelbiberach577 m06:31-4,4-4,4 (06:08)-1,0 (00:16)0,0 l/m²84%1023,83,2 km/h (1 Bft) NO12,8 km/h (3 Bft) NO (05:56)
Neresheim552 m06:01-6,8-6,8 (06:01)-2,0 (00:00)0,0 l/m²89%1021,70,0 km/h (0 Bft) O4,0 km/h (1 Bft) NO (01:00)
Neukirch570 m06:30-3,1-3,1 (07:05)-0,9 (14:35)0,0 l/m²81%1021,96,4 km/h (2 Bft) N-NO37,0 km/h (5 Bft) N-NO (11:55)
Ochsenhausen, Birkenstraße613 m06:30-5,4-5,4 (07:10)-2,2 (12:50)0,0 l/m²82%1023,21,6 km/h (1 Bft) NO3,2 km/h (1 Bft) S-SW (07:05)
Ochsenhausen, Unt. Wiesen575 m06:30-5,6-5,7 (06:15)-2,4 (00:00)0,0 l/m²89%1024,40,0 km/h (0 Bft) NO4,8 km/h (1 Bft) NO (00:00)
Opfenbach-Göritz561 m06:31-4,3-5,2 (05:22)-2,8 (00:00)0,0 l/m²74%1020,00,0 km/h (0 Bft) N-NO6,5 km/h (2 Bft) O-NO (00:18)
Ostrach619 m06:30-3,8-3,8 (04:15)-0,6 (00:00)0,0 l/m²89%1021,112,9 km/h (3 Bft) N-NW12,9 km/h (3 Bft) N-NW (06:30)
Ravensburg, Goethestraße428 m06:30-1,9-1,9 (06:30)1,3 (00:00)0,0 l/m²80%1021,812,9 km/h (3 Bft) N-NO16,1 km/h (3 Bft) O-NO (06:15)
Ravensburg-Wernsreute511 m06:30-3,2-3,2 (06:25)0,0 (15:50)0,0 l/m²82%1024,619,3 km/h (3 Bft) N35,4 km/h (5 Bft) N-NO (11:45)
Reichenbach an der Fils343 m06:30-2,2-2,2 (06:30)1,0 (00:00)0,0 l/m²77%1025,41,6 km/h (1 Bft) SO12,9 km/h (3 Bft) O-SO (05:10)
Riedlingen530 m06:30-3,4-3,4 (06:30)-1,0 (00:00)0,0 l/m²81%1023,00,0 km/h (0 Bft) O-NO0,0 km/h (0 Bft) N (00:00)
Rißtissen489 m06:30-3,2-3,3 (06:30)-0,2 (00:00)0,0 l/m²85%1020,61,6 km/h (1 Bft) O-NO8,0 km/h (2 Bft) O-NO (03:30)
Rottweil-Hausen681 m06:28-4,3-4,4 (05:57)-1,9 (00:00)0,0 l/m²83%1023,83,2 km/h (1 Bft) N-NW6,5 km/h (2 Bft) N (02:14)
Schemmerhofen520 m06:302,72,7 (00:00)2,7 (00:00)0,0 l/m²55%1021,80,0 km/h (0 Bft) NO0,0 km/h (0 Bft) NO (00:00)
Silbertal im Montafon (AT)884 m06:31-4,4-4,4 (06:14)-1,6 (00:01)0,0 l/m²85%1026,10,0 km/h (0 Bft) O-NO0,0 km/h (0 Bft) O-NO (00:00)
Tettnang466 m06:29-1,6-1,6 (06:26)1,0 (00:00)0,0 l/m²72%1021,71,4 km/h (1 Bft) O-NO16,2 km/h (3 Bft) O-SO (01:07)
Tuttlingen648 m06:21-4,1-4,3 (05:41)-2,1 (00:01)0,0 l/m²76%1023,60,0 km/h (0 Bft) W5,2 km/h (1 Bft) W-SW (03:26)
Tuttlingen, Möhringer-Vorstadt711 m06:30-4,4-4,5 (07:10)-2,4 (16:05)0,0 l/m²82%1022,60,0 km/h (0 Bft) O-NO25,7 km/h (4 Bft) N-NW (12:35)
Ummendorf547 m06:30-4,8-4,8 (06:30)-0,7 (00:10)0,0 l/m²68%1023,80,0 km/h (0 Bft) O-NO16,1 km/h (3 Bft) O (01:05)
Ummendorf-Fischbach558 m06:30-5,2-5,4 (06:15)-1,9 (01:25)0,0 l/m²70%1023,70,0 km/h (0 Bft) O4,8 km/h (1 Bft) O (04:20)
Waldburg707 m06:30-3,3-3,3 (06:30)-0,8 (00:00)0,0 l/m²80%1021,48,0 km/h (2 Bft) N19,3 km/h (3 Bft) N (02:35)
Waltenhofen im Allgäu720 m06:25-7,3-7,3 (06:15)-2,2 (01:05)0,0 l/m²90%1022,50,0 km/h (0 Bft) W17,7 km/h (3 Bft) W (11:50)
Wangen, Südring548 m06:30-4,1-4,1 (06:25)-0,3 (00:00)0,0 l/m²84%1021,54,7 km/h (1 Bft) NO13,0 km/h (3 Bft) NO (01:25)
Warthausen-Birkenhard581 m06:29-4,3-4,3 (05:35)-1,2 (00:00)0,0 l/m²86%1023,410,1 km/h (2 Bft) N-NO13,7 km/h (3 Bft) NO (06:13)
Winterlingen785 m06:30-5,6-5,6 (06:30)-2,8 (01:00)0,0 l/m²84%1022,42,9 km/h (1 Bft) O-NO3,6 km/h (1 Bft) NO (00:55)

niederschlagsdatenbank | info | login - erfassung

Sollten Sie Interesse haben, an der Niederschlagsdatenbank teilzunehmen, finden Sie > hier < weitere Informationen.
Datum: . . Kalender
Anmerkung:0,0 = nicht messbarer Niederschlag
 -  = kein Niederschlag
 k  = kumulierter Niederschlag

< 17.06.201919.06.2019 >


Niederschlagswerte vom 18.06.2019    -    derzeit 112 Stationen

Die Niederschlagswerte des gewählten Tages lassen sich durch Klicken auf das Datum sortieren.
Die Angaben sind in l/m².

Station15.06.16.06.17.06.18.06.19.06.20.06.21.06.Bemerkung 18.06.
Aichstetten Ulmenstraße 7-------
Aichstetten-Nestbaum Nestbaum22,01,0-9,07,0--
Albbruck Furmisstr. 1833,4---0,75,03,7
Sonne +32°C Gegen Abend bewölkt. Nachts +14°C
Allmendingen Querqueviller Ring 614,01,0--4,00,30,5
Amstetten-Reutti Gassenäcker 138,80,2-1,611,69,26,2
Gewitter
Aulendorf Steinenbacher Weg 3323,61,0-0,51,81,00,0
Regen
Aulendorf-Blönried Heuweg 3228,05,7---1,1-
Bad Bellingen Rheinstraße 76-------
Bad Buchau Hanfweiher 126,07,0--2,0--
Bad Saulgau Walserweg23,52,5--2,54,54,0
Bad Saulgau-Hochberg Lampertsweiler Straße 1219,02,0--0,60,40,3
Bad Schussenried Konradstraße30,20,5-0,01,71,20,5
Cb-0, 20.32-ca.21.30 (SE>NE)
Regen
Bad Schussenried Lortzingstrasse30,01,0--2,02,0-
Bad Schussenried Klosterstraße35,00,5--2,02,0-
Bad Schussenried Theodor-Storm-Strasse28,0------
Bad Schussenried-Hopferbach Unterer Öschweg 16/124,02,0--2,50,72,0
Bad Schussenried-Lufthütte Hauptgasse 1727,01,0-1,02,51,0-
Bad Schussenried-Sattenbeuren Ortsstraße 7-------
Bad Schussenried-Schwaigfurt Schwaigfurt 230,0---1,51,5-
Bad Waldsee-Haisterkirch Zur Spitzenkapelle 128,2--0,05,50,00,0
+13,5/+28°C, weitgehend sonniger Sommertag, zu Sonnenuntergang leicht [weiterlesen...]
Gewitter
Bad Wurzach-Seibranz Kimpflerhof 2 22,0--7,07,8-1,0
Baienfurt Untere Bergstrasse 722,0---7,03,0-
Balzheim Hinterm Liess 1919,01,0--3,01,02,0
Gewitter
Berg-Kleintobel Kleintobel10,91,8--4,92,20,2
Biberach Amriswilstrasse24,24,2--3,90,212,3
Biberach Strölinweg19,06,0-----
Biberach Erlenweg-------
Biberach Neue Heimat 522,510,0--1,5-4,5
Biberach Mittelbergstraße 916,06,0--2,00,08,0
Biberach Auf dem Lindele-------
Biberach-Bergerhausen Löcherstr.122,09,0--1,70,87,5
Bierstetten Schloßbühl 625,5----0,54,8
Blaubeuren-Pappelau Sotzenhauserstr.78,0------
Bühlertal Wolfinstraße 1633,02,0---3,0-
Dettingen a. d. Iller Schleifweg 4--39,09,0--3,0
Dornstadt-Tomerdingen Maienweg 914,4---7,712,9-
Dürnau Dorfäckerweg 520,0---4,01,024,0
Eberhardzell Lilienweg35,11,1-1,24,71,62,0
Ebersbach-Roßwälden Appenwiesen10,0--0,310,5--
Sehr sonnig, gegen 18:30 kurzes leichtes Gewitter.
Regen Gewitter
Ehingen Rosenstraße16,00,0-0,02,00,70,8
Regen
Ehingen Zanderstraße18,0---2,0-0,2
Ehingen Schlaufenbühl17,4---0,90,30,3
Ehingen Schillerstraße19,9--0,02,40,51,0
Regen
Ehingen-Herbertshofen Tobelweg 9-------
Eislingen Albstraße 12516,70,3--10,723,80,0
Gewitter
Erbach-Bach Hauptstraße 247,0---3,01,80,0
Erlenmoos Haldenweg 1527,20,4-2,87,21,30,9
Regen Gewitter
Füramoos Hungersberg 128,2-0,00,01,42,70,0
Gutenzell Kleinser Berg 18,0--0,05,02,53,0
Gutenzell-Hürbel Bei der Sägmühle 118,02,0--4,82,04,8
Herbertingen Drosselweg26,51,5--1,00,320,5
Sommer pur bei knapp 30 Grad.
Herbertingen Hirschstrasse25,5-----17,0
Hochdorf-Schweinhausen Lindenweg 232,6---5,20,94,8
Hohentengen-Bremen Bremer Halde 431,00,0---0,30,2
Horgenzell-Ringgenweiler Ringgenweiler 62018,00,2-0,01,41,61,0
Hüttisheim Ulmer Weg 211,00,0--1,00,00,0
Illerkirchberg Mahdauweg 206,00,4--1,10,00,0
Illerrieden-Wangen Am Muckenberg 129,50,5---1,02,0
Immenstaad Stockwiesen 10-------
Inzigkofen Butzenweg 111,00,3--4,04,18,0
Isny Am Dreifingerbach 3916,4---6,80,28,4
Kirchberg Rosenstr. 729,02,0--4,53,61,2
Kreuzthal-Steinberg-Alpe Im Kreuzbachthal 856,3--0,17,82,03,6
Regen Gewitter
Langenau Wasserstr. 54-18,00,5--1,011,50,5
Langenenslingen Schattenweiler Str. 1816,90,70,00,01,84,44,8
Regen Bodennebel
Leutkirch Unterer Auenweg 2512,7--0,75,60,2-
Regen
Leutkirch Nachtigallenweg 2815,00,2-2,08,01,0-
Leutkirch-Adrazhofen Bergstraße 2013,0--1,06,0-1,0
Merklingen Millergasse 9-------
Mietingen Seerosenweg 1011,01,0--1,02,52,0
Mietingen-Walpertshofen Bussenweg 3111,0---1,02,03,0
Mittelbiberach-Reute Rindenmooser Straße 217,03,5--2,0-15,5
Moosburg Käserweg 522,010,5--1,0-13,1
Hochsommerlich.
Münsingen-Rietheim In der Lise 2014,6--27,216,40,22,4
22mm in 10 Minuten!
Regen Hagel Gewitter
Neresheim Alfred-Delp-Straße 89,90,7---17,9-
Oberdischingen Normannenstraße 77,0---1,91,20,5
Ochsenhausen Ehrensberger Weg 533,8--1,29,30,80,6
Regen Gewitter
Öpfingen Hauptstraße 999,5---3,01,50,4
Ostrach Uhlandweg41,01,0--0,0-1,5
Pfaffenhofen-Kadeltshofen Mühlbachstraße 4-----31,0-
Pfullendorf Am Schweizersbild 33,0------
Rangendingen Donaustraße 197,0---8,03,02,0
Ravensburg Bleicherstraße12,00,3--8,83,0-
Ravensburg-Schmalegg St.-Magdalena-Ring 4210,0---1,21,1-
Ravensburg-Wernsreute Wernsreute 257,2---2,01,40,2
Ravensburg-Weststadt Karl-Erb-Ring 1429,0---5,52,2-
Regensburg Orleansstraße 3-------
Riedhausen Blütenweg 1339,41,4--1,60,6-
Temp. +14,6°C / +29,9°C, Windböen S-SW 17,8 km/h
Riedlingen Berliner Str. 4114,0---2,5--
Riedlingen-Neufra Panoramaweg------3,0
Riedlingen-Neufra Riedlinger Strasse19,81,30,00,02,02,02,8
+ 18,0 Grad, 78 % LF, wolkenloser Himmel
Schelklingen-Gundershofen Schwarzer-Straße 1412,0---10,53,03,5
Temp. zw. +5,9°C und +41,6°C. Nach frischem Morgen ein sehr heisser [weiterlesen...]
Schemmerberg Drosselweg 914,02,0---4,11,5
Schwörstadt Schulstrasse 1917,4---0,27,65,8
Seekirch Haldenberg 7-31,0--0,05,54,5
Sigmaringendorf Weingartenstraße 718,4---2,41,211,8
Tuttlingen Möhringerstraße 1123,4---1,0-5,2
Ulm Eberhardtstraße 758,9----17,00,1
Ummendorf Tulpenweg29,01,0--3,00,521,0
gelegentliches Donnergrollen am Abend kündigte ein Gewitter an, welch [weiterlesen...]
Gewitter
Ummendorf Friedrich-Schiller-Str.15,00,6---0,616,0
Uttenweiler-Ahlen Seekircher Straße 818,45,5--0,14,02,5
Vöhringen (Schwarzwald) Drosselweg 312,0--2,012,03,03,0
Waldburg Kastanienweg1124,0---5,5-1,5
Wangen-Bergerhöhe Berg 29,8--0,013,00,02,0
Warthausen An der Schloßhalde 12,2---1,82,05,0
Warthausen Schwabenwiesen 15,64,2-0,71,42,14,6
Regen
Warthausen-Barabein Barabein 2019,06,0--1,53,05,0
Weingarten Laurastraße15,00,2-0,06,04,50,1
+ 16,6 ° C um 4.45 UHr, 959 hPa,
Nieselregen
Weingarten Hoyerstraße-------
Weingarten Marienstraße14,00,5--8,03,00,2
Wolfegg-Veesers Veesers 124,5---3,51,5-
Wolpertswende Aulendorfer Str. 1725,62,7--1,80,90,6

Stillgelegte Niederschlagsstationen    -    derzeit 49 Stationen

StationLetzte Meldung15.06.16.06.17.06.18.06.19.06.20.06.21.06.Bemerkung 18.06.
Allmannsweiler Eggatsweilerstr.2802.09.2014-------
Aulendorf-Rugetsweiler Erikaweg 325.07.2013-------
Aulendorf-Zollenreute Imterstraße 1209.02.2019-------
Bad Saulgau Willi-Burth-Straße19.09.2011-------
Bad Saulgau Eichendorffweg28.03.2013-------
Bad Saulgau Seewattenstraße 12815.01.2014-------
Bad Saulgau-Lampertsweiler Valentinstr. 2618.02.2015-------
Bad Schussenried-Steinhausen Drosselgasse 4/126.09.2012-------
Bad Waldsee-Michelwinnanden Michelberg 531.12.2014-------
Bad Waldsee-Osterhofen Hochwaldgasse 406.03.2015-------
Bad Waldsee-Steinach Hofraingasse 1510.11.2013-------
Bad Wurzach-Dietmanns Postweg 519.01.2019-------
Bad Wurzach-Haidgau Wengener Straße 507.10.2012-------
Bad Wurzach-Ziegelbach Ziegelbach-Greut 507.11.2014-------
Bergatreute Bolanden 113.02.2012-------
Betzenweiler Offinger Straße 505.01.2017-------
Burgrieden Am Nonnenberg 328.10.2013-------
Burgrieden-Rot Schmiedgasse 518.09.2013-------
Eberhardzell Schillerstraße05.07.2010-------
Ehingen Am Elzengraben17.06.2016-------
Gammertingen Schillerstraße 2216.01.2016-------
Griesingen Blumenstraße 906.10.2015-------
Günzburg Erlenbadweg 34 1/231.12.2010-------
Hoßkirch Kirchstraße 805.01.2018-------
Ingoldingen-Grodt Ingoldinger Weg 1919.11.2016-------
Kisslegg Kirchmoosstraße02.05.2011-------
Krauchenwies-Hausen Rosenrain 123.11.2013-------
Kressbronn Irisstraße 410.03.2010-------
Leutkirch-Ottmannshofen Spitalriedstraße 527.07.2012-------
Leutkirch-Rotis Rotis 5/208.05.2016-------
Leutkirch-Wuchzenhofen Untere Kirchstraße 18/119.09.2016-------
Mietingen Hangweg 1530.12.2017-------
Mössingen-Bästenhardt Weissdornweg 721.07.2014-------
Ostrach Heiligenberger Straße19.08.2013-------
Pfullendorf Ringstraße 18.03.2012-------
Ravensburg Olgastraße30.10.2016-------
Seltmans Amselweg 2209.04.2013-------
Stuttgart-Bad Cannstatt Beuthener Str. 6703.02.2013-------
Stuttgart-Möhringen Glashütter Weg 1023.04.2017-------
Stuttgart-Rohr Hirschsprung 307.11.2012-------
Talheim Im Schecken 2121.08.2016-------
Tannheim Eggmannstr. 42 22.10.2017-------
Tettnang-Ramsbach Jahnstr. 24/126.03.2011-------
Tuttlingen-Möhringen Belchenstraße01.01.2015-------
Ummendorf Bergstraße23.10.2017-------
Vogt Mühlwies 1822.05.2015-------
Wangen-Atzenberg Keplerweg 324.02.2019-------
Weingarten Bischof-Sproll-Straße30.06.2011-------
Wilhelmsdorf Riedhauser Straße 28.10.2012-------
Wilhelmsdorf Seefeld20.08.2013-------
Wurmlingen An der Steig 3014.10.2016-------
Die Niederschlagswerte des gewählten Tages lassen sich durch Klicken auf das Datum sortieren.
Die Angaben sind in l/m².

Wetterbeobachtungen Legende:

  • Regen
  • Nieselregen
  • Schneeregen
  • Schnee
  • Graupel
  • Eiskörner
  • Hagel
  • Bodennebel
  • Gewitter
  • Nebelnässe
  • Schneegriesel

Grafische Darstellung der Tagesniederschläge vom 18.06.2019

< 17.06.201919.06.2019 >Monats- und Jahresniederschlag


 
wetterstationen
wetterstationen
- derzeit 83 Stationen
niederschlagsdatenbank
wetterstationen
- kartographische Darstellung
niederschlagsdatenbank
niederschlagsstationen
- derzeit 112 Stationen
niederschlagsdatenbank
niederschlagsstationen
- kartographische Darstellung
 
  treffpunkt & service
--- Anzeigen --------------------------------
zugriffe:
insgesamt: 46.623.342
aktueller monat: 531
heute: 531
momentan online: 41
 
 
monatshöchstwert: 653.625
vorheriger monat: 364.213
gestern: 13.565
tageshöchstwert: 57.073
 
wetterwarte süd
 
konradstraße 3
info@wetterwarte-sued.com
roland roth
 
88427 bad schussenried